Weather Roundup
Issued by NWS Chicago, IL

Home | Current Version | Previous Version | Graphics & Text | Print | Product List | Glossary On
Versions: 1 2 3 4 5 6 7 8 9 10 11 12 13 14 15 16 17 18 19 20 21 22 23 24 25 26 27 28 29 30 31 32 33 34 35 36 37 38 39 40 41 42 43 44 45 46 47 48 49 50
000
NZUS59 KLOT 271606
HRRLOT

CHICAGO AREA WEATHER ROUNDUP
NATIONAL WEATHER SERVICE CHICAGO/ROMEOVILLE IL
1000 AM CST SAT DEC 27 2014

NOTE: "FAIR" INDICATES FEW OR NO CLOUDS BELOW 12,000 FEET WITH NO
SIGNIFICANT WEATHER AND/OR OBSTRUCTIONS TO VISIBILITY.

* THESE STATIONS ARE NOT UNDER NWS QUALITY CONTROL. THEY ALSO MAY NOT
  REPORT WEATHER SUCH AS PRECIPITATION OR FOG.

ILZ005-006-012>014-019>023-271700-
NORTHEAST ILLINOIS

CITY           SKY/WX    TMP DP  RH WIND       PRES   REMARKS
OHARE          CLOUDY    47  45  93 SW18G31   29.96R
MIDWAY         CLOUDY    49  46  90 SW18G29   29.98R
AURORA         LGT RAIN  48  44  86 SW20G32   29.97R FOG
LANSING*       CLOUDY    47  46  97 SW18      30.01R FOG
JOLIET*        CLOUDY    48  46  92 SW13      29.99S
WAUKEGAN       CLOUDY    49  45  86 SW22      29.92R
DUPAGE AIRPORT LGT RAIN  49  46  90 SW17      29.95R FOG
WHEELING       CLOUDY    48  45  89 SW20G25   29.97R
KANKAKEE*      CLOUDY    47  46  96 SW20      30.04R FOG
MORRIS*        CLOUDY    48  48  98 SW18      29.99S FOG
LEWIS AIRPORT* CLOUDY    48  47  99 SW15G21   29.98S FOG
NORTHERLY IS     N/A     47  45  93 S17         N/A
$$

WIZ051-052-058>065-066-070>072-271700-
SOUTHEAST WISCONSIN

CITY           SKY/WX    TMP DP  RH WIND       PRES   REMARKS
MILWAUKEE      CLOUDY    49  45  86 SW20G29   29.88R
KENOSHA*       CLOUDY    49  46  90 SW17G26   29.90R
RACINE*        CLOUDY    50  45  83 SW16G30   29.91R
BURLINGTON     CLOUDY    47  45  93 SW23G29   29.88F
WAUKESHA       CLOUDY    45  45 100 S12G18    29.87R
WEST BEND      LGT RAIN  46  43  87 SW16G24   29.84R
$$

INZ001>003-010>013-019-020-271700-
NORTHWEST INDIANA

CITY           SKY/WX    TMP DP  RH WIND       PRES   REMARKS
GARY*          CLOUDY    48  45  87 S13G29    30.00R FOG
MICHIGAN CITY* NOT AVBL
RENSSELAER*    NOT AVBL
VALPARAISO     CLOUDY    46  45  96 S17G23    30.02S FOG
$$

LMZ740>746-271700-
SOUTHERN LAKE MICHIGAN

STATION/POSITION TIME  SKY/WX   TEMP WIND        PRES    VSBY
                                AIR  DIR/SP/G
                 (UTC)          (F)  (DEG/KT/KT) (MB)    (MI)
HARRISON CRIB    1600            47  210/ 24/ 28   N/A
BURNHAM HARBOR   1600            48  200/ 14/ 18   N/A
CALUMET HARBOR   1600            47  200/ 14/ 23 1014.2R
BURNS HARBOR     NOT AVBL
MICHIGAN CITY    1600            46  150/ 15/ 20   N/A
$$

ABBREVIATIONS USED IN REMARKS
   TC - TEMPERATURE IN CELSIUS
  WCI - WIND CHILL INDEX
   HX - HEAT INDEX
  VSB - VISIBILITY
$$



USA.gov is the U.S. government's official web portal to all federal, state and local government web resources and services.